Ithaca, NY

9:43 AM EST on January 21, 2017 (GMT -0500)
Ithaca

Weather History for KITH - March, 2013

Change the Weather History Date:

Monday, March 11, 2013

  Actual Average Record
Temperature  
Mean Temperature 48 °F -  
Max Temperature 52 °F 41 °F 69 °F (1977)
Min Temperature 43 °F 21 °F -10 °F (1960)
Degree Days  
Heating Degree Days 18    
Moisture  
Dew Point 30 °F    
Average Humidity 51    
Maximum Humidity 74    
Minimum Humidity 38    
Precipitation  
Precipitation 0.00 in - - ()
Sea Level Pressure  
Sea Level Pressure 29.97 in    
Wind  
Wind Speed 15 mph (SSE)    
Max Wind Speed 22 mph    
Max Gust Speed 33 mph    
Visibility 10 miles    
Events Rain    
Averages and records for this station are not official NWS values.
T = Trace of Precipitation, MM = Missing Value Source: NWS Daily Summary

Daily Weather History Graph

Daily Weather History Graph

Search for Another Location

Airport or City:

Trip Planner

Search our weather history database for the weather conditions in past years. The results will help you decide how hot, cold, wet, or windy it might be!

Date:

Astronomy

Mar. 11, 2013 Rise Set
Actual Time 7:24 AM EDT 7:07 PM EDT
Civil Twilight 6:56 AM EDT 7:35 PM EDT
Nautical Twilight 6:23 AM EDT 8:08 PM EDT
Astronomical Twilight 5:50 AM EDT 8:41 PM EDT
Moon 6:56 AM EDT (3/11) 7:18 PM EDT (3/11)
Length of Visible Light 12h 39m
Length of Day
11h 43m
Waning Crescent, 0% of the Moon is Illuminated
Mar 11
Waning Crescent
Mar 11
New
Mar 19
First Quarter
Mar 27
Full
Apr 3
Last Quarter

Hourly Weather History & Observations

Time (EDT) Temp. Windchill Dew Point Humidity Pressure Visibility Wind Dir Wind Speed Gust Speed Precip Events Conditions
12:56 AM 45.9 °F 39.4 °F 22.1 °F 39% 30.09 in 10.0 mi SSE 15.0 mph 21.9 mph N/A   Clear
1:56 AM 46.9 °F - 22.1 °F 38% 30.09 in 10.0 mi South 11.5 mph - N/A   Clear
2:56 AM 45.9 °F 42.3 °F 25.2 °F 44% 30.09 in 10.0 mi SSE 6.9 mph - N/A   Clear
3:56 AM 45.0 °F 38.5 °F 25.2 °F 46% 30.07 in 10.0 mi SSE 13.8 mph 19.6 mph N/A   Mostly Cloudy
4:56 AM 45.9 °F 38.5 °F 25.2 °F 44% 30.02 in 10.0 mi SSE 18.4 mph 26.5 mph N/A   Partly Cloudy
5:56 AM 45.0 °F 39.3 °F 25.2 °F 46% 30.03 in 10.0 mi SSE 11.5 mph 21.9 mph N/A   Clear
6:56 AM 45.0 °F 38.2 °F 24.1 °F 44% 30.04 in 10.0 mi SSE 15.0 mph 21.9 mph N/A   Mostly Cloudy
7:56 AM 43.9 °F 35.7 °F 25.2 °F 48% 30.04 in 10.0 mi South 19.6 mph - N/A   Mostly Cloudy
8:56 AM 45.0 °F 37.9 °F 26.1 °F 48% 30.05 in 10.0 mi South 16.1 mph - N/A   Overcast
9:56 AM 45.9 °F 39.7 °F 28.0 °F 50% 30.05 in 10.0 mi SSE 13.8 mph 21.9 mph N/A   Overcast
10:56 AM 46.9 °F - 29.1 °F 50% 30.05 in 10.0 mi South 17.3 mph - N/A   Overcast
11:56 AM 47.8 °F - 30.0 °F 50% 30.04 in 10.0 mi South 15.0 mph 24.2 mph N/A   Mostly Cloudy
12:56 PM 47.8 °F - 31.1 °F 52% 30.02 in 10.0 mi SSE 20.7 mph - N/A   Mostly Cloudy
1:56 PM 50.0 °F - 32.0 °F 50% 29.98 in 10.0 mi SSE 15.0 mph 25.3 mph N/A   Mostly Cloudy
2:56 PM 52.0 °F - 31.1 °F 45% 29.95 in 10.0 mi South 16.1 mph 23.0 mph N/A   Mostly Cloudy
3:56 PM 52.0 °F - 30.0 °F 43% 29.91 in 10.0 mi South 21.9 mph 26.5 mph N/A   Scattered Clouds
4:56 PM 50.9 °F - 31.1 °F 47% 29.91 in 10.0 mi South 18.4 mph 25.3 mph N/A   Mostly Cloudy
5:56 PM 50.9 °F - 29.1 °F 43% 29.89 in 10.0 mi SSE 16.1 mph 21.9 mph N/A   Mostly Cloudy
6:56 PM 50.0 °F - 30.0 °F 46% 29.90 in 10.0 mi SSE 17.3 mph - N/A   Mostly Cloudy
7:56 PM 48.9 °F - 32.0 °F 52% 29.90 in 10.0 mi SSE 12.7 mph 20.7 mph N/A   Mostly Cloudy
8:56 PM 48.9 °F - 36.0 °F 61% 29.87 in 10.0 mi SSE 17.3 mph 27.6 mph 0.00 in Rain Light Rain Showers
9:56 PM 50.0 °F - 38.8 °F 66% 29.82 in 10.0 mi South 21.9 mph 29.9 mph 0.00 in   Mostly Cloudy
10:09 PM 50.0 °F - 39.2 °F 66% 29.81 in 10.0 mi South 16.1 mph 24.2 mph N/A   Mostly Cloudy
10:56 PM 50.9 °F - 41.9 °F 71% 29.83 in 10.0 mi South 13.8 mph 25.3 mph N/A   Overcast
11:56 PM 50.9 °F - 43.0 °F 74% 29.79 in 10.0 mi South 17.3 mph 33.4 mph N/A   Mostly Cloudy